Simultaneous Nadir Overpasses (SNOs) Predictions

Prediction of SNOs between METOP-B and NPP Satellite Orbit:

Table of predicted SNOs for the next 14.0 days since TLE Epoch: 6/10/2022
Index Date (METOP-B) Time (METOP-B) Lat,Lon (METOP-B) SZA (METOP-B ) Date (NPP) Time (NPP) Lat,Lon (NPP) SZA (NPP ) Distance(km) Time Diff (sec)
1 06/23/2022 21:35:21 73.48,-150.47 50.12 06/23/2022 21:34:14 73.45,-153.17 50.25 85.60 67
2 06/23/2022 22:26:05 -73.39, 16.67 129.95 06/23/2022 22:24:57 -73.38, 14.29 129.82 75.87 68
3 06/23/2022 23:16:49 73.15,-176.53 49.84 06/23/2022 23:15:38 73.15,-177.88 49.92 43.55 71
4 06/24/2022 00:07:33 -73.07, -9.37 130.24 06/24/2022 00:06:21 -73.09, -10.43 130.15 34.06 72
5 06/24/2022 00:58:17 72.83, 157.44 49.55 06/24/2022 00:57:02 72.85, 157.40 49.59 2.34 75
6 06/24/2022 01:48:59 -72.85, -35.19 130.43 06/24/2022 01:47:46 -72.83, -35.26 130.43 3.22 73
7 06/24/2022 02:39:39 72.81, 132.06 49.53 06/24/2022 02:38:31 72.80, 132.13 49.53 2.62 68



Historial Predications of SNOs between METOP-B and NPP
